Milton, FL

12:17 AM CST on February 27, 2017 (GMT -0600)
Whiting Field Naval Air Station (North)

Weather History for KNSE - February, 2013

Change the Weather History Date:

Thursday, February 28, 2013

  Actual Average Record
Temperature  
Mean Temperature 52 °F -  
Max Temperature 60 °F 65 °F 80 °F (2011)
Min Temperature 44 °F 46 °F 19 °F (2002)
Degree Days  
Heating Degree Days 13    
Growing Degree Days 2 (Base 50)    
Moisture  
Dew Point 33 °F    
Average Humidity 54    
Maximum Humidity 80    
Minimum Humidity 31    
Precipitation  
Precipitation 0.00 in - - ()
Sea Level Pressure  
Sea Level Pressure 29.99 in    
Wind  
Wind Speed 8 mph (NW)    
Max Wind Speed 16 mph    
Max Gust Speed 23 mph    
Visibility 10 miles    
Events      
Averages and records for this station are not official NWS values.
T = Trace of Precipitation, MM = Missing Value Source: NWS Daily Summary

Daily Weather History Graph

Daily Weather History Graph

Search for Another Location

Airport or City:

Trip Planner

Search our weather history database for the weather conditions in past years. The results will help you decide how hot, cold, wet, or windy it might be!

Date:

Astronomy

Feb. 28, 2013 Rise Set
Actual Time 6:15 AM CST 5:46 PM CST
Civil Twilight 5:51 AM CST 6:10 PM CST
Nautical Twilight 5:23 AM CST 6:38 PM CST
Astronomical Twilight 4:55 AM CST 7:06 PM CST
Moon 8:54 PM CST (2/28) 7:40 AM CST (2/28)
Length of Visible Light 12h 19m
Length of Day
11h 30m
Waning Gibbous, 90% of the Moon is Illuminated
Feb 28
Waning Gibbous
Mar 4
Last Quarter
Mar 11
New
Mar 19
First Quarter
Mar 27
Full

Hourly Weather History & Observations

Time (CST) Temp. Windchill Dew Point Humidity Pressure Visibility Wind Dir Wind Speed Gust Speed Precip Events Conditions
12:56 AM 48.9 °F - 43.0 °F 80% 29.95 in 10.0 mi WNW 8.1 mph - N/A   Clear
1:56 AM 48.9 °F - 39.0 °F 69% 29.94 in 10.0 mi NNW 4.6 mph - N/A   Clear
2:56 AM 48.0 °F - 37.9 °F 68% 29.94 in 10.0 mi NW 4.6 mph - N/A   Mostly Cloudy
3:56 AM 48.0 °F - 37.9 °F 68% 29.95 in 10.0 mi NNW 5.8 mph - N/A   Clear
4:56 AM 45.0 °F 41.8 °F 37.0 °F 74% 29.97 in 10.0 mi NNW 5.8 mph - N/A   Clear
5:56 AM 44.1 °F 41.5 °F 35.1 °F 71% 30.00 in 10.0 mi NNW 4.6 mph - N/A   Clear
6:56 AM 44.1 °F 41.5 °F 36.0 °F 73% 30.02 in 10.0 mi NW 4.6 mph - N/A   Partly Cloudy
7:56 AM 48.9 °F - 34.0 °F 56% 30.03 in 10.0 mi NNW 6.9 mph - N/A   Partly Cloudy
8:56 AM 51.1 °F - 32.0 °F 48% 30.03 in 10.0 mi Variable 6.9 mph 16.1 mph N/A   Scattered Clouds
9:56 AM 54.0 °F - 32.0 °F 43% 30.03 in 10.0 mi NNW 15.0 mph 20.7 mph N/A   Mostly Cloudy
10:56 AM 55.9 °F - 30.9 °F 39% 30.03 in 10.0 mi NW 15.0 mph 20.7 mph N/A   Mostly Cloudy
11:56 AM 57.9 °F - 30.0 °F 35% 30.01 in 10.0 mi NW 13.8 mph 19.6 mph N/A   Mostly Cloudy
12:56 PM 60.1 °F - 30.0 °F 32% 29.98 in 10.0 mi WNW 11.5 mph - N/A   Mostly Cloudy
1:56 PM 57.9 °F - 27.0 °F 31% 29.97 in 10.0 mi NNW 16.1 mph 23.0 mph N/A   Mostly Cloudy
2:56 PM 57.0 °F - 30.0 °F 36% 29.96 in 10.0 mi NNW 11.5 mph 17.3 mph N/A   Mostly Cloudy
3:56 PM 55.9 °F - 28.9 °F 36% 29.96 in 10.0 mi NW 8.1 mph - N/A   Mostly Cloudy
4:56 PM 54.0 °F - 28.9 °F 38% 29.97 in 10.0 mi NW 9.2 mph - N/A   Overcast
5:56 PM 52.0 °F - 30.9 °F 45% 29.97 in 10.0 mi NNW 5.8 mph - N/A   Overcast
6:56 PM 50.0 °F - 32.0 °F 50% 29.99 in 10.0 mi NW 5.8 mph - N/A   Overcast
7:56 PM 48.0 °F - 32.0 °F 54% 30.00 in 10.0 mi WNW 4.6 mph - N/A   Overcast
8:56 PM 46.9 °F - 35.1 °F 63% 30.01 in 10.0 mi WNW 6.9 mph - N/A   Overcast
9:56 PM 46.9 °F - 34.0 °F 61% 30.02 in 10.0 mi WNW 8.1 mph - N/A   Mostly Cloudy
10:56 PM 46.0 °F 43.1 °F 35.1 °F 66% 30.03 in 10.0 mi WNW 5.8 mph - N/A   Overcast
11:56 PM 46.9 °F - 33.1 °F 59% 30.04 in 10.0 mi NNW 5.8 mph - N/A   Clear